Starlink 35926

operational
NORAD ID: 66642 Int'l Des: 2025-271 Owner: SPXS Country: US Constellation: starlink
LEOCIRCULAR

关于 Starlink 35926

正在加载描述...

实时位置

正在加载3D地球...

即将过境

高度历史

Altitude vs Time

uPlot chart will show altitude changes over time

两行轨道根数

1 66642U 25271AB 26071.30299444 .00030378 00000-0 10322-2 0 9993
2 66642 53.1577 128.0081 0001496 118.4376 241.6776 15.30243759 17925
Epoch: Mar 12, 2026 • Age: 39 hours

当前状态

高度 476.6 km
速度 7.63 km/s
星下点 -1.75°S, 90.22°E
发射日期 Nov 23, 2025
运行时间 0.3 years
类型 internet

技术详情

分类 Payload
质量 575.00 kg
干质量 530.00 kg
总质量 575.00 kg
长度 0.30 m
直径 4.10 m
跨度 29.00 m
形状 Box + pan
制造商 SPXS
平台类型 Starlink V2MO
阶段状态 In Orbit
所有者/国家 SPXS/US

大型星座

Loading constellations...